Regional Weather Roundup
Issued by NWS

Home | Current Version | Previous Version | Text Only | Print | Product List | Glossary Off
Versions: 1 2 3 4 5 6 7 8 9 10 11 12 13 14 15 16 17 18 19 20 21 22 23 24 25 26 27 28 29 30 31 32 33 34 35 36 37 38 39 40 41 42 43 44 45 46 47 48 49 50

000
ASUS43 KIND 220159
RWRIN

WEATHER ROUNDUP FOR INDIANA
NATIONAL WEATHER SERVICE INDIANAPOLIS IN
900 PM EST SUN DEC 21 2014

NOTE: "FAIR" INDICATES FEW OR NO CLOUDS BELOW 12,000 FEET WITH NO
SIGNIFICANT WEATHER AND/OR OBSTRUCTIONS TO VISIBILITY.

* - STATION DOES NOT REPORT WEATHER SUCH AS PRECIPITATION OR FOG.

+ - STATION NOT QUALITY CONTROLLED BY THE NATIONAL WEATHER SERVICE.
    USE DATA WITH CAUTION...ESPECIALLY DEWPOINT AND RELATIVE
    HUMIDITY OBSERVATIONS.

INZ001>003-010>013-019-020-220300-
NORTHWEST INDIANA

CITY           SKY/WX    TMP DP  RH WIND       PRES   REMARKS
GARY /AIRPORT/ CLOUDY    36  27  69 SE14      30.09F
KNOX *+        CLEAR     32  25  75 SE8       30.11F WCI  24
MONTICELLO +   PTCLDY    31  28  88 SE3       30.11S
VALPARAISO     NOT AVBL

$$

LMZ046-743>745-220300-
SOUTHERN LAKE MICHIGAN

STATION/POSITION TIME  TEMP WIND        PRES
                       AIR  DIR/SP/G
                 (UTC) (F)  (DEG/KT/KT) (MB)

$$

INZ004-005-014>016-021>024-220300-
NORTH CENTRAL INDIANA

CITY           SKY/WX    TMP DP  RH WIND       PRES   REMARKS
GOSHEN         PTCLDY    31  25  78 SE8       30.12F WCI  23
SOUTH BEND     PTCLDY    33  26  75 SE10      30.13  WCI  25

$$

INZ006>009-017-018-025>027-220300-
NORTHEAST INDIANA

CITY           SKY/WX    TMP DP  RH WIND       PRES   REMARKS
ANGOLA *+      CLEAR     28  25  86 SE7       30.14F WCI  21
FORT WAYNE     PTCLDY    27  23  85 E7        30.16F WCI  19

$$

INZ028-029-035-036-043>045-051>053-220300-
WEST CENTRAL INDIANA

CITY           SKY/WX    TMP DP  RH WIND       PRES   REMARKS
GREENCASTLE +  PTCLDY    30  25  80 SE7       30.11S WCI  23
LAFAYETTE      PTCLDY    29  25  85 E6        30.11S WCI  23
TERRE HAUTE    MOCLDY    32  27  81 SE10      30.09F WCI  24

$$

INZ030>032-037>040-046>048-054>057-064-065-220300-
CENTRAL INDIANA

CITY           SKY/WX    TMP DP  RH WIND       PRES   REMARKS
COLUMBUS       CLEAR     30  27  86 SE5       30.14S WCI  25
FRANKFORT +    PTCLDY    31  29  91 E9        30.12S FOG     WCI  23
INDIANAPOLIS   MOCLDY    29  24  82 SE8       30.12R WCI  21
-EAGLE CREEK   PTCLDY    29  25  85 SE3       30.12R
KOKOMO *+      CLEAR     30  27  86 SE9       30.12F WCI  22
MT COMFORT *+  PTCLDY    32  23  69 SE7       30.12F WCI  26
SHELBYVILLE    CLEAR     32  26  78 SE7       30.13S WCI  26

$$

INZ033-034-041-042-049-050-058-059-220300-
EAST CENTRAL INDIANA

CITY           SKY/WX    TMP DP  RH WIND       PRES   REMARKS
MUNCIE         CLEAR     31  25  78 SE7       30.13F WCI  24

$$

INZ060-061-067>069-081>083-085>088-220300-
SOUTHWEST INDIANA

CITY           SKY/WX    TMP DP  RH WIND       PRES   REMARKS
EVANSVILLE     CLEAR     36  28  73 NE5       30.09F
HUNTINGBURG *+ CLEAR     34  27  75 E7        30.09F WCI  28

$$

INZ062-063-066-070>080-084-089>092-220300-
SOUTH CENTRAL AND SOUTHEAST INDIANA

CITY           SKY/WX    TMP DP  RH WIND       PRES   REMARKS
BLOOMINGTON    PTCLDY    31  27  85 E6        30.10F WCI  25

$$




USA.gov is the U.S. government's official web portal to all federal, state and local government web resources and services.